TimeAKDT,TemperatureF,Dew PointF,Humidity,Sea Level PressureIn,VisibilityMPH,Wind Direction,Wind SpeedMPH,Gust SpeedMPH,PrecipitationIn,Events,Conditions,WindDirDegrees,DateUTC
12:23 AM,-0.4,-2.2,92,29.80,9.0,SSE,3.5,-,0.00,Snow,Light Snow,160,2013-11-01 08:23:00
12:33 AM,-0.4,-2.2,92,29.80,9.0,South,5.8,-,0.00,Fog,Patches of Fog,190,2013-11-01 08:33:00
12:53 AM,-0.0,-2.9,88,29.81,10.0,South,6.9,-,0.00,Fog,Patches of Fog,190,2013-11-01 08:53:00
1:53 AM,-4.0,-8.0,83,29.83,10.0,South,8.1,-,N/A,Fog,Patches of Fog,180,2013-11-01 09:53:00
2:33 AM,-5.8,-9.4,84,29.83,9.0,South,5.8,-,0.00,Fog-Snow,Light Snow,170,2013-11-01 10:33:00
2:49 AM,-5.8,-7.6,92,29.83,1.8,South,6.9,-,0.00,Snow,Light Snow,170,2013-11-01 10:49:00
2:53 AM,-4.0,-7.1,87,29.84,1.0,South,9.2,-,0.00,Snow,Light Snow,190,2013-11-01 10:53:00
3:00 AM,-2.2,-5.8,85,29.83,0.8,South,8.1,-,0.00,,Scattered Clouds,180,2013-11-01 11:00:00
3:38 AM,-4.0,-7.6,85,29.84,2.5,South,6.9,-,0.00,,Scattered Clouds,170,2013-11-01 11:38:00
3:45 AM,-4.0,-7.6,85,29.84,10.0,SSE,4.6,-,0.00,,Scattered Clouds,150,2013-11-01 11:45:00
3:53 AM,-4.0,-8.0,83,29.86,7.0,South,8.1,-,0.00,Fog,Patches of Fog,180,2013-11-01 11:53:00
4:53 AM,-5.1,-9.0,83,29.86,7.0,South,8.1,-,N/A,Fog,Patches of Fog,170,2013-11-01 12:53:00
5:53 AM,-6.0,-9.9,83,29.87,10.0,South,9.2,-,N/A,,Partly Cloudy,170,2013-11-01 13:53:00
6:53 AM,-8.0,-11.9,83,29.88,10.0,South,9.2,-,N/A,,Partly Cloudy,170,2013-11-01 14:53:00
7:48 AM,-5.8,-9.4,84,29.89,1.8,South,8.1,-,N/A,Fog,Patches of Fog,180,2013-11-01 15:48:00
7:53 AM,-5.1,-8.0,87,29.90,3.0,South,8.1,-,N/A,,Mostly Cloudy,180,2013-11-01 15:53:00
8:18 AM,-2.2,-5.8,85,29.90,10.0,SSE,8.1,-,N/A,,Scattered Clouds,160,2013-11-01 16:18:00
8:53 AM,-6.0,-9.9,83,29.91,10.0,SSE,8.1,-,N/A,,Scattered Clouds,150,2013-11-01 16:53:00
9:53 AM,-4.0,-8.0,83,29.92,10.0,SSE,8.1,-,N/A,,Partly Cloudy,160,2013-11-01 17:53:00
9:59 AM,-4.0,-7.6,85,29.91,10.0,SSE,8.1,-,N/A,,Scattered Clouds,160,2013-11-01 17:59:00
10:53 AM,-2.0,-6.0,83,29.92,10.0,SSE,6.9,-,N/A,,Mostly Cloudy,160,2013-11-01 18:53:00
11:53 AM,-2.9,-8.0,79,29.93,10.0,SSE,11.5,-,N/A,,Mostly Cloudy,150,2013-11-01 19:53:00
12:53 PM,-2.0,-6.0,83,29.95,10.0,South,10.4,-,N/A,,Mostly Cloudy,170,2013-11-01 20:53:00
1:53 PM,-0.9,-5.1,83,29.96,10.0,SSE,9.2,-,N/A,,Mostly Cloudy,160,2013-11-01 21:53:00
2:53 PM,-0.0,-4.0,83,29.97,10.0,SSE,10.4,-,N/A,,Mostly Cloudy,160,2013-11-01 22:53:00
3:53 PM,-0.0,-5.1,79,29.96,10.0,South,11.5,-,N/A,,Mostly Cloudy,170,2013-11-01 23:53:00
4:53 PM,-2.9,-7.1,82,29.96,10.0,SSE,9.2,-,N/A,,Scattered Clouds,160,2013-11-02 00:53:00
5:53 PM,-5.1,-9.0,83,29.94,10.0,SSE,10.4,-,N/A,,Scattered Clouds,150,2013-11-02 01:53:00
6:53 PM,-7.1,-11.0,83,29.94,10.0,SSE,10.4,-,N/A,,Partly Cloudy,150,2013-11-02 02:53:00
7:08 PM,-5.8,-9.4,84,29.94,10.0,SSE,9.2,-,N/A,,Scattered Clouds,160,2013-11-02 03:08:00
7:53 PM,-7.1,-11.9,79,29.94,10.0,SE,10.4,-,N/A,,Partly Cloudy,140,2013-11-02 03:53:00
8:53 PM,-8.0,-13.0,79,29.93,10.0,SE,10.4,-,N/A,,Clear,140,2013-11-02 04:53:00
9:53 PM,-8.0,-13.0,79,29.92,10.0,SE,11.5,-,N/A,,Clear,140,2013-11-02 05:53:00
10:14 PM,-7.6,-11.2,84,29.91,10.0,SE,11.5,-,N/A,,Mostly Cloudy,140,2013-11-02 06:14:00
10:53 PM,-6.0,-11.0,79,29.91,10.0,SE,10.4,-,N/A,,Overcast,140,2013-11-02 06:53:00
11:53 PM,-0.9,-5.1,83,29.90,10.0,SSE,12.7,-,N/A,,Overcast,150,2013-11-02 07:53:00